sat.trackr.live / text

‹ back to catalog

STARLINK-36835

NORAD 67863 · 2026-034P

PAYLOAD ACTIVE UNKNOWN

§ Identity

Operator
Country
US
Launch date
2026-02-20
Launch site
AFETR
Launch vehicle
Mass (kg)
RCS (m²)

Purposes: comms

External: N2YO · Heavens-Above · Gunter

§ Orbital elements

Epoch: 2026-09-19T08:02:15.067968Z

Period
93.85 min
Inclination
53.1623°
Eccentricity
0.0001537
Mean motion
15.34415952 rev/d
Perigee alt
461.6 km
Apogee alt
463.7 km
Semi-major
6,840.8 km
B*
6.8778e-4
RAAN
23.3684°
Arg perigee
80.5074°
Mean anomaly
279.6102°
Rev number
3,370

§ Raw data

STARLINK-368351 67863U 26034P   26262.33489662  .00022945  00000+0  68778-3 0  99942 67863  53.1623  23.3684 0001537  80.5074 279.6102 15.34415952 33707

JSON: /api/v1/satellites/67863 · /tle

For live sub-satellite position, see the globe view (requires WebGL).

§ Visibility from observer

Set your observer location to see the next 7 days of passes ≥ 10°. The values pass through the URL so the page stays shareable.

No JS? Fill the form by hand. The geolocation button needs JavaScript.